Date,TemperatureHighF,TemperatureAvgF,TemperatureLowF,DewpointHighF,DewpointAvgF,DewpointLowF,HumidityHigh,HumidityAvg,HumidityLow,PressureMaxIn,PressureMinIn,WindSpeedMaxMPH,WindSpeedAvgMPH,GustSpeedMaxMPH,PrecipitationSumIn
2013-1-1,39.7,36.4,27.6,32.4,26.7,14.4,82,68,55,29.77,29.59,14,2,14,0.02
2013-1-2,33.7,27.5,23.1,19.4,16.0,13.1,77,62,49,29.93,29.75,11,1,11,0.00
2013-1-3,33.3,28.1,21.7,22.1,18.4,16.6,87,67,53,29.94,29.82,10,1,11,0.00
2013-1-4,37.8,33.1,24.6,25.3,23.4,20.3,87,68,58,29.84,29.71,18,2,19,0.00
2013-1-5,43.4,34.2,27.0,25.9,23.3,20.4,87,65,47,30.04,29.77,13,1,13,0.00
2013-1-6,47.2,37.3,29.6,33.6,29.7,25.7,93,75,50,29.97,29.72,13,1,13,0.00
2013-1-7,45.9,34.4,24.8,33.3,26.5,22.1,94,75,45,30.15,29.80,11,1,12,0.00
2013-1-8,48.9,33.6,22.4,35.1,27.7,20.7,95,81,54,30.16,30.08,11,1,11,0.00
2013-1-9,47.3,36.1,24.3,39.6,32.0,23.1,95,85,72,30.14,29.89,8,0,8,0.00
2013-1-10,48.9,40.8,31.7,34.8,28.4,25.6,86,63,41,30.29,29.99,11,1,12,0.00
2013-1-11,44.9,38.0,29.5,43.1,35.0,26.9,97,89,73,30.28,29.84,3,0,5,0.49
2013-1-12,48.7,44.7,40.8,46.7,43.7,40.0,98,96,92,29.92,29.83,3,0,3,0.00
2013-1-13,49.1,46.1,43.9,48.7,45.7,43.3,99,99,97,29.90,29.75,4,0,4,0.01
2013-1-14,56.7,49.6,39.7,54.4,43.5,28.1,99,82,44,30.05,29.66,11,1,11,0.06
2013-1-15,39.7,37.4,34.9,36.7,31.6,28.8,93,80,69,30.09,29.95,8,0,9,0.10
2013-1-16,35.9,33.5,32.5,35.3,32.7,31.5,99,97,90,29.96,29.56,8,0,8,0.51
2013-1-17,44.3,38.5,35.3,35.4,31.6,26.0,98,77,59,29.84,29.66,11,1,11,0.15
2013-1-18,35.9,29.3,24.9,27.6,15.4,6.0,75,57,36,30.22,29.74,14,2,14,0.00
2013-1-19,50.4,38.3,25.9,31.5,25.8,14.9,78,61,42,30.14,29.67,14,1,14,0.00
2013-1-20,54.1,40.8,30.1,33.0,24.1,13.5,92,55,25,29.80,29.45,23,3,29,0.00
2013-1-21,31.5,27.7,20.7,19.7,14.8,10.6,82,59,47,29.84,29.59,11,1,11,0.00
2013-1-22,26.4,19.4,13.2,12.5,2.6,-3.7,59,48,34,29.96,29.59,18,3,20,0.00
2013-1-23,19.4,13.5,8.3,6.1,0.6,-3.7,86,57,42,30.00,29.91,14,2,14,0.00
2013-1-24,24.5,15.6,6.2,9.1,3.1,-0.9,91,61,33,30.17,29.87,18,2,18,0.00
2013-1-25,24.3,17.1,11.0,16.1,6.9,-1.0,88,65,45,30.18,29.81,9,1,9,0.00
2013-1-26,28.6,18.2,6.6,13.4,8.4,3.6,92,67,44,30.13,29.80,12,2,13,0.00
2013-1-27,35.9,23.3,10.7,17.0,12.4,7.2,91,65,37,30.27,30.13,12,1,12,0.00
2013-1-28,34.4,28.8,18.9,33.4,26.2,13.9,96,90,79,30.24,29.75,7,0,7,0.01
2013-1-29,53.7,41.7,34.3,45.1,39.1,33.3,98,91,70,29.88,29.75,5,0,5,0.02
2013-1-30,67.0,50.0,39.1,62.6,48.6,38.6,99,95,79,29.82,29.08,21,1,22,0.18
2013-1-31,62.1,44.5,29.0,60.3,32.4,12.1,97,64,39,29.55,28.79,29,6,32,0.97
2013-2-1,32.7,27.5,22.9,20.5,13.9,4.6,78,57,32,29.98,29.54,20,3,20,0.00
2013-2-2,30.0,23.4,17.6,21.5,12.1,8.0,92,63,42,30.05,29.79,14,2,14,0.00
2013-2-3,31.4,25.3,21.2,22.6,20.5,17.4,93,82,66,29.79,29.54,8,0,8,0.03
2013-2-4,31.0,25.6,21.2,21.5,14.3,10.8,91,63,45,29.73,29.56,18,2,22,0.00
2013-2-5,31.4,28.7,25.0,28.1,25.4,18.2,93,87,75,29.72,29.64,5,0,5,0.00
2013-2-6,40.2,32.3,25.6,29.1,23.2,12.8,97,71,48,30.10,29.66,15,1,15,0.01
2013-2-7,33.4,27.5,19.3,21.3,16.1,12.1,87,63,45,30.24,30.05,5,0,5,0.00
2013-2-8,34.4,32.4,29.5,33.1,29.5,20.5,96,89,67,30.05,29.40,14,3,15,0.05
2013-2-9,35.2,28.7,20.9,29.5,18.6,9.2,96,68,39,30.10,29.51,18,3,20,0.13
2013-2-10,41.0,25.7,8.6,24.2,13.7,5.5,90,64,30,30.22,30.06,7,0,7,0.21
2013-2-11,41.6,35.2,28.4,40.8,33.1,22.1,98,92,73,30.07,29.41,3,0,3,0.25
2013-2-12,45.8,39.6,29.3,37.3,28.2,24.4,98,65,48,29.73,29.48,16,2,16,0.01
2013-2-13,44.7,33.6,21.5,32.7,26.4,19.5,96,77,50,29.71,29.42,5,0,6,0.00
2013-2-14,47.6,37.1,29.2,35.4,29.6,25.8,97,77,46,29.75,29.46,10,0,10,0.09
2013-2-15,56.5,39.9,26.5,36.2,30.8,24.8,97,73,41,29.76,29.66,14,1,14,0.02
2013-2-16,39.7,35.3,30.1,34.9,26.7,14.2,95,72,52,29.72,29.50,10,1,10,0.05
2013-2-17,31.6,26.6,18.5,14.6,7.9,2.7,59,45,33,29.78,29.45,28,4,28,0.00
2013-2-18,35.5,25.7,16.7,16.9,9.0,3.6,59,49,35,30.00,29.78,16,2,16,0.00
2013-2-19,46.4,35.2,22.0,42.5,29.7,15.8,96,81,54,29.93,29.43,20,1,22,0.42
2013-2-20,37.3,30.2,25.1,26.6,16.0,11.3,66,55,44,29.75,29.48,22,4,22,0.00
2013-2-21,35.2,28.3,24.1,17.8,15.1,11.9,70,58,45,30.03,29.73,18,4,18,0.00
2013-2-22,37.6,30.5,22.5,30.3,23.1,15.8,86,74,60,30.14,30.00,6,0,6,0.00
2013-2-23,40.8,37.6,33.8,40.3,36.6,30.2,98,96,86,30.01,29.55,8,0,8,0.17
2013-2-24,46.7,38.2,33.0,39.5,32.1,23.1,98,80,57,29.74,29.51,17,2,17,0.01
2013-2-25,43.5,36.0,26.5,30.5,27.5,23.0,93,72,55,29.99,29.74,10,1,10,0.00
2013-2-26,44.2,35.7,26.0,35.1,30.6,24.4,96,82,64,30.02,29.60,13,2,13,0.12
2013-2-27,48.1,42.5,36.3,47.0,39.9,35.0,97,91,76,29.62,29.25,16,3,16,0.34
2013-2-28,50.3,41.1,35.9,39.3,34.4,29.4,98,78,56,29.38,29.30,9,1,10,0.00
2013-3-1,45.6,37.7,28.4,32.9,29.7,26.5,96,74,53,29.54,29.37,12,2,12,0.00
2013-3-2,39.4,34.9,31.0,26.9,25.1,22.5,78,67,57,29.54,29.46,14,2,14,0.00
2013-3-3,38.5,32.3,28.9,22.6,20.7,18.3,71,62,51,29.54,29.43,15,3,16,0.00
2013-3-4,42.9,34.0,27.4,24.4,20.8,17.2,71,59,43,29.68,29.53,19,3,19,0.00
2013-3-5,51.1,38.8,31.2,29.7,26.0,22.4,81,61,41,29.77,29.68,12,1,12,0.00
2013-3-6,42.7,39.5,34.7,35.9,32.6,28.8,87,77,65,29.71,29.57,24,5,24,0.00
2013-3-7,42.0,37.4,33.6,35.5,30.6,27.0,93,77,65,29.84,29.67,21,3,21,0.07
2013-3-8,43.4,35.7,30.7,36.8,31.6,27.6,96,86,65,29.95,29.76,10,1,10,0.25
2013-3-9,59.4,41.9,26.6,28.0,23.2,7.6,94,55,14,30.07,29.93,11,1,11,0.00
2013-3-10,52.3,38.2,26.1,38.3,31.4,23.8,96,78,55,30.13,30.03,6,1,6,0.00
2013-3-11,57.2,45.8,35.4,48.6,41.5,32.5,97,86,53,30.07,29.83,13,1,13,0.00
2013-3-12,57.5,52.9,44.2,56.4,50.1,38.5,96,90,75,29.83,29.41,16,2,16,0.78
2013-3-13,51.7,42.8,35.1,38.6,31.7,23.9,94,67,36,29.65,29.55,18,2,18,0.00
2013-3-14,42.9,35.3,30.2,26.0,14.9,7.7,64,44,27,29.72,29.60,19,4,20,0.00
2013-3-15,47.2,38.3,27.8,32.4,22.1,12.5,63,52,41,29.74,29.46,17,2,17,0.00
2013-3-16,44.3,35.2,30.6,31.9,28.6,22.5,92,78,57,29.66,29.52,5,0,5,0.04
2013-3-17,37.7,33.1,29.3,31.4,22.1,16.7,92,65,44,30.05,29.66,13,1,13,0.00
2013-3-18,35.5,30.8,24.1,32.3,22.5,12.5,96,72,53,30.14,29.74,8,1,8,0.05
2013-3-19,48.6,39.0,33.3,38.8,33.3,18.3,97,82,42,29.74,29.44,17,2,20,0.54
2013-3-20,46.4,38.4,31.6,25.3,20.8,16.5,65,50,31,29.64,29.52,19,3,19,0.00
2013-3-21,39.5,34.1,29.8,29.7,19.7,12.5,90,57,35,29.58,29.38,10,2,11,0.00
2013-3-22,42.1,33.7,25.4,24.3,19.7,14.2,74,57,39,29.65,29.49,20,2,20,0.00
2013-3-23,47.2,38.4,31.7,24.1,21.7,18.4,69,52,34,29.69,29.58,17,3,19,0.00
2013-3-24,46.9,38.8,25.9,28.6,23.0,19.8,81,54,38,29.70,29.44,11,1,11,0.00
2013-3-25,39.3,37.3,33.7,35.6,31.8,26.9,95,81,61,29.45,29.23,10,1,11,0.11
2013-3-26,50.8,41.7,31.4,36.3,31.0,25.3,97,69,37,29.62,29.35,11,1,12,0.01
2013-3-27,51.7,40.9,28.7,32.6,28.8,21.9,90,65,31,29.75,29.62,13,2,14,0.00
2013-3-28,50.7,42.5,30.1,32.8,30.6,27.2,93,64,46,29.86,29.72,13,2,13,0.00
2013-3-29,54.7,42.8,29.1,32.3,29.2,26.8,94,62,35,29.90,29.81,12,1,13,0.00
2013-3-30,60.1,43.9,27.6,35.5,25.7,17.9,96,56,21,29.92,29.80,14,1,14,0.00
2013-3-31,57.2,42.9,28.6,44.2,33.6,23.5,96,73,37,29.87,29.43,12,1,12,0.13
2013-4-1,61.9,48.1,37.4,47.5,37.3,12.8,98,71,32,29.67,29.38,24,2,24,0.01
2013-4-2,43.7,36.8,27.1,21.0,15.4,11.2,71,43,27,29.83,29.67,18,3,19,0.00
2013-4-3,46.3,36.5,24.2,20.0,15.6,10.1,79,45,26,30.06,29.84,16,3,17,0.00
2013-4-4,56.4,41.3,25.5,26.2,21.2,13.9,82,47,28,30.14,29.82,13,1,13,0.00
2013-4-5,64.3,49.1,39.7,32.8,25.8,18.3,73,44,19,29.82,29.47,16,2,17,0.00
2013-4-6,55.0,43.4,34.3,28.8,17.9,8.5,63,38,18,30.05,29.75,15,2,16,0.00
2013-4-7,64.8,49.9,37.0,45.1,35.1,27.8,79,59,30,30.05,29.73,17,2,18,0.00
2013-4-8,77.1,60.5,42.8,48.3,43.9,36.3,93,59,25,29.82,29.72,12,1,12,0.00
2013-4-9,83.5,67.4,50.2,54.2,45.6,35.3,91,52,19,29.72,29.64,21,2,21,0.00
2013-4-10,83.7,65.8,56.0,58.0,52.8,46.1,97,65,39,29.69,29.55,13,1,17,0.38
2013-4-11,60.4,55.5,47.9,59.0,51.6,43.1,98,87,69,29.77,29.51,10,1,10,0.03
2013-4-12,48.8,43.7,41.9,43.5,41.6,40.5,96,93,75,29.75,29.46,11,2,12,0.44
2013-4-13,58.8,48.6,37.8,44.1,38.8,34.4,98,73,42,29.72,29.49,17,1,17,0.02
2013-4-14,59.6,50.7,40.2,41.3,34.5,27.9,94,58,32,29.95,29.71,15,2,15,0.00
2013-4-15,60.7,50.0,41.8,42.4,34.6,29.2,82,57,38,30.12,29.95,8,1,9,0.00
2013-4-16,71.7,58.8,46.7,56.8,50.2,42.3,90,74,54,30.11,29.85,16,1,16,0.00
2013-4-17,72.5,62.6,51.3,57.5,42.9,29.7,91,54,21,30.04,29.86,10,1,10,0.00
2013-4-18,56.7,51.1,43.5,52.1,45.7,40.2,96,82,67,30.08,29.83,7,1,7,0.00
2013-4-19,79.8,66.3,53.2,65.9,60.8,52.1,98,84,58,29.84,29.37,17,2,17,0.33
2013-4-20,58.7,52.2,46.3,54.2,36.3,24.4,95,58,33,30.05,29.45,26,3,26,0.18
2013-4-21,55.9,45.1,33.5,33.3,25.0,20.3,72,47,26,30.35,30.06,13,1,13,0.00
2013-4-22,54.4,44.3,31.0,38.4,33.4,28.7,96,67,45,30.39,30.22,10,2,10,0.00
2013-4-23,50.8,44.7,40.0,43.4,38.1,32.8,87,78,67,30.21,29.87,10,1,10,0.00
2013-4-24,74.6,54.9,32.8,55.0,45.6,31.3,98,74,47,29.87,29.55,13,1,13,0.00
2013-4-25,66.8,55.7,43.6,54.9,33.1,22.6,82,46,19,30.01,29.60,19,2,20,0.00
2013-4-26,68.0,52.0,34.9,38.2,31.7,22.0,94,52,20,30.15,30.01,14,1,14,0.00
2013-4-27,72.3,55.5,35.5,38.4,33.2,24.9,95,49,19,30.18,30.01,12,1,12,0.00
2013-4-28,73.2,56.9,38.3,43.4,37.3,28.7,93,52,29,30.06,29.92,13,1,14,0.00
2013-4-29,56.8,53.2,51.1,52.0,49.5,41.5,96,88,57,29.98,29.92,6,0,7,0.12
2013-4-30,65.5,55.8,43.4,50.8,41.9,25.7,95,65,25,30.08,29.94,8,1,8,0.00
2013-5-1,69.0,52.2,33.9,46.0,37.7,26.5,97,63,25,30.23,30.08,9,1,9,0.00
2013-5-2,76.3,56.8,36.0,49.0,42.1,33.9,98,64,30,30.22,30.06,12,0,12,0.00
2013-5-3,67.3,56.0,45.5,46.0,41.1,34.1,85,60,32,30.19,30.09,10,1,10,0.00
2013-5-4,72.5,53.3,37.6,47.3,41.6,35.6,97,69,34,30.12,29.97,7,1,8,0.00
2013-5-5,65.9,50.7,39.2,46.6,41.4,37.1,96,73,43,30.04,29.97,8,0,8,0.00
2013-5-6,71.3,54.6,39.4,55.8,47.5,36.7,96,79,56,30.01,29.90,8,0,8,0.00
2013-5-7,74.5,59.0,42.6,60.4,52.7,40.7,98,81,60,29.92,29.83,7,0,8,0.00
2013-5-8,67.5,61.1,53.9,63.1,59.0,51.9,98,93,83,29.84,29.70,8,0,8,0.62
2013-5-9,68.8,59.3,52.3,59.5,55.3,50.6,98,88,66,29.75,29.64,7,0,7,0.12
2013-5-10,81.6,65.8,48.1,61.8,55.5,46.7,98,73,40,29.76,29.64,8,0,8,0.09
2013-5-11,72.8,64.7,60.4,65.9,62.6,58.7,97,93,76,29.67,29.45,14,0,14,1.08
2013-5-12,66.5,59.3,50.1,59.5,43.2,27.7,97,61,27,29.70,29.43,16,2,17,0.01
2013-5-13,55.5,47.4,36.5,36.9,31.7,25.0,94,57,32,29.87,29.70,16,1,16,0.00
2013-5-14,63.4,48.3,33.0,36.6,30.8,19.5,96,58,20,29.89,29.77,12,1,12,0.00
2013-5-15,76.4,59.0,39.5,58.9,49.0,35.2,93,72,49,29.82,29.43,9,0,9,0.00
2013-5-16,83.7,66.8,52.7,63.3,56.2,48.8,98,73,36,29.59,29.47,8,0,8,0.00
2013-5-17,75.5,62.4,50.7,54.3,44.9,38.5,91,56,27,29.95,29.59,8,0,8,0.00
2013-5-18,62.9,56.3,48.3,57.2,52.3,45.6,95,87,73,30.05,29.95,4,0,4,0.00
2013-5-19,58.5,57.2,55.3,57.9,56.2,54.2,98,97,89,30.05,29.91,3,0,3,0.35
2013-5-20,79.0,66.4,57.4,68.4,62.8,56.8,99,89,68,29.93,29.71,7,0,8,0.00
2013-5-21,87.4,72.9,58.9,73.6,66.6,57.7,99,82,57,29.73,29.60,9,1,9,0.00
2013-5-22,84.3,72.0,64.2,74.2,68.0,61.8,98,88,70,29.68,29.57,6,0,6,0.00
2013-5-23,80.5,71.8,68.0,72.2,68.9,66.5,98,91,71,29.64,29.50,9,0,10,1.25
2013-5-24,68.0,55.0,45.1,66.5,52.6,42.0,98,92,81,29.72,29.45,10,0,10,0.29
2013-5-25,57.4,50.2,44.0,44.9,41.6,36.4,95,74,51,29.77,29.67,19,1,19,0.11
2013-5-26,68.2,56.9,46.9,41.5,38.4,32.3,80,53,29,29.96,29.74,15,2,15,0.00
2013-5-27,74.8,57.7,38.5,48.3,41.2,36.2,97,60,28,30.00,29.88,8,0,9,0.00
2013-5-28,63.0,55.6,47.6,58.4,53.0,45.3,98,91,73,29.98,29.88,1,0,1,0.39
2013-5-29,87.8,69.9,57.7,72.2,63.6,57.1,99,83,51,29.88,29.75,10,0,10,0.01
2013-5-30,92.2,78.8,65.8,69.4,66.2,62.8,97,69,39,29.89,29.81,7,0,7,0.00
2013-5-31,93.3,78.4,64.5,72.8,65.7,56.3,98,69,32,29.88,29.74,7,0,7,0.00
2013-6-1,93.5,77.9,63.2,71.9,67.1,61.2,98,72,43,29.78,29.65,9,0,9,0.00
2013-6-2,88.2,79.7,71.9,72.1,69.4,67.3,89,72,53,29.67,29.53,11,1,12,0.00
2013-6-3,80.8,73.3,67.7,71.2,66.3,52.2,96,80,57,29.65,29.54,9,0,10,0.11
2013-6-4,76.8,65.6,56.1,52.2,46.9,43.0,77,52,31,29.87,29.65,8,1,8,0.00
2013-6-5,73.3,61.8,47.1,53.9,48.8,41.8,94,65,39,29.96,29.86,5,0,5,0.00
2013-6-6,71.7,62.1,53.0,60.9,57.6,51.6,97,86,58,29.90,29.75,5,0,5,0.13
2013-6-7,63.3,61.4,60.3,62.7,60.7,59.5,98,98,96,29.75,29.36,5,0,5,3.29
2013-6-8,77.3,66.8,57.4,65.9,61.9,56.4,99,85,64,29.81,29.35,6,0,6,0.04
2013-6-9,81.6,68.2,55.5,65.0,59.8,54.1,98,77,47,29.93,29.81,9,0,9,0.00
2013-6-10,67.5,65.3,63.1,67.2,64.3,61.6,99,97,95,29.91,29.55,5,0,5,0.73
2013-6-11,79.8,72.8,67.6,69.2,66.5,62.0,99,82,61,29.55,29.39,12,1,12,0.01
2013-6-12,79.5,70.0,59.9,63.0,58.4,54.3,94,68,44,29.61,29.48,11,1,11,0.00
2013-6-13,64.6,61.4,57.0,62.8,60.1,55.8,98,96,92,29.60,29.20,5,0,5,0.83
2013-6-14,74.4,60.0,53.9,61.9,55.6,51.5,98,87,59,29.66,29.28,8,0,8,0.33
2013-6-15,80.5,65.4,51.7,63.2,56.5,51.2,99,77,41,29.77,29.65,8,0,8,0.00
2013-6-16,81.0,68.7,54.7,67.0,60.4,53.9,98,77,49,29.75,29.54,12,1,13,0.00
2013-6-17,85.3,72.2,61.7,69.1,65.0,60.0,98,80,52,29.67,29.59,8,0,8,0.00
2013-6-18,81.5,69.1,62.0,71.7,65.3,60.5,98,89,64,29.66,29.55,5,0,5,0.16
2013-6-19,77.0,66.1,58.1,61.8,55.6,47.5,96,73,38,29.92,29.64,4,0,5,0.00
2013-6-20,80.5,67.0,52.4,61.8,57.0,51.6,98,73,43,30.02,29.92,4,0,8,0.00
2013-6-21,83.0,70.0,55.0,62.4,57.4,52.7,96,67,44,30.06,29.98,7,0,8,0.00
2013-6-22,84.3,71.2,54.9,68.3,61.3,53.5,96,73,52,30.02,29.87,9,0,9,0.00
2013-6-23,87.8,74.9,62.0,72.9,67.8,61.0,97,80,57,29.95,29.81,10,0,10,0.00
2013-6-24,92.3,77.4,67.9,73.7,69.7,62.1,98,80,46,29.83,29.71,9,0,9,0.05
2013-6-25,90.8,75.8,64.3,77.5,69.8,63.7,99,84,50,29.76,29.57,15,0,15,0.21
2013-6-26,86.5,76.7,69.8,73.6,69.4,66.3,98,79,55,29.61,29.53,7,0,7,0.00
2013-6-27,86.7,76.1,68.6,76.5,71.6,67.7,98,87,62,29.58,29.31,10,0,10,1.33
2013-6-28,86.1,76.8,71.3,72.1,70.1,66.7,97,81,57,29.32,29.23,8,0,12,0.00
2013-6-29,86.0,75.1,65.4,69.9,67.3,64.5,98,79,51,29.45,29.25,7,0,8,0.00
2013-6-30,82.7,74.4,66.4,78.3,71.3,65.5,98,91,75,29.66,29.45,6,0,8,0.11
2013-7-1,76.7,74.5,72.0,75.0,72.9,70.6,98,95,92,29.80,29.60,18,0,18,1.13
2013-7-2,84.5,77.1,73.4,76.8,73.4,71.5,97,89,73,29.93,29.79,8,0,8,0.01
2013-7-3,86.8,77.4,71.8,77.2,73.2,69.8,96,87,67,30.00,29.92,8,0,8,0.00
2013-7-4,88.8,80.3,73.3,77.3,74.2,72.1,97,83,62,30.00,29.91,9,0,10,0.00
2013-7-5,91.3,81.1,71.9,75.9,73.1,70.1,97,78,54,29.97,29.84,10,0,10,0.00
2013-7-6,92.6,82.5,75.1,76.7,73.8,71.2,93,77,53,29.90,29.78,8,0,9,0.00
2013-7-7,93.5,82.0,72.3,78.9,74.0,70.5,97,78,55,29.83,29.69,13,0,14,0.04
2013-7-8,88.3,77.4,69.0,72.9,69.8,67.5,96,79,55,29.81,29.73,8,0,8,0.00
2013-7-9,86.8,76.3,67.3,74.9,70.7,65.6,97,84,63,29.83,29.74,8,0,8,0.03
2013-7-10,87.0,78.3,70.9,76.9,73.4,70.3,99,86,63,29.77,29.57,9,0,10,0.05
2013-7-11,83.3,77.7,69.7,74.9,71.3,66.2,92,81,66,29.68,29.56,5,0,5,0.00
2013-7-12,76.2,71.4,67.4,70.9,67.7,63.8,97,88,76,29.84,29.68,3,0,3,0.12
2013-7-13,80.0,72.3,67.7,77.1,71.4,67.0,99,97,89,30.03,29.83,4,0,4,0.33
2013-7-14,90.2,80.2,74.0,76.7,74.2,71.8,99,84,58,30.10,29.99,8,0,9,0.00
2013-7-15,94.5,81.4,70.8,76.9,73.7,69.6,98,80,53,30.02,29.89,6,0,6,0.00
2013-7-16,91.8,80.6,69.3,76.4,71.3,65.9,98,77,45,29.97,29.89,6,0,6,0.00
2013-7-17,94.2,82.1,70.8,76.5,72.7,69.3,98,76,47,29.95,29.82,5,0,5,0.00
2013-7-18,97.0,84.6,73.2,79.7,74.4,70.0,96,74,43,29.83,29.72,6,0,6,0.00
2013-7-19,96.1,85.9,75.4,80.7,76.8,73.9,97,76,51,29.74,29.56,10,0,11,0.00
2013-7-20,92.2,82.8,76.4,77.4,73.1,68.4,88,74,51,29.61,29.49,10,1,10,0.00
2013-7-21,87.3,78.5,72.0,72.9,69.6,66.0,96,76,52,29.71,29.59,3,0,4,0.00
2013-7-22,86.8,76.5,69.6,76.4,72.0,66.8,96,87,66,29.71,29.55,3,0,4,0.33
2013-7-23,87.2,77.9,71.5,75.7,73.0,69.9,98,86,64,29.55,29.33,8,0,8,0.89
2013-7-24,80.0,73.3,65.6,69.9,65.1,55.0,97,77,55,29.69,29.38,7,0,7,0.00
2013-7-25,66.3,64.5,62.2,60.7,56.4,51.5,87,75,68,29.80,29.68,4,0,4,0.00
2013-7-26,82.8,70.9,63.8,65.9,62.2,60.0,90,75,49,29.81,29.75,5,0,6,0.00
2013-7-27,84.8,71.2,58.8,68.9,62.9,57.0,98,77,47,29.81,29.69,6,0,6,0.00
2013-7-28,82.3,70.9,64.9,73.4,67.4,62.8,97,89,73,29.74,29.64,10,0,10,1.96
2013-7-29,82.5,71.8,61.3,69.2,64.2,53.5,98,80,39,29.87,29.70,10,0,10,0.01
2013-7-30,79.2,67.7,56.6,64.3,59.3,55.2,98,77,50,29.93,29.86,4,0,7,0.00
2013-7-31,82.5,69.3,57.1,65.8,61.3,55.5,98,78,48,29.92,29.79,5,0,5,0.00
2013-8-1,70.3,67.8,65.9,68.6,66.3,64.2,98,95,87,29.79,29.59,4,0,4,0.70
2013-8-2,83.0,71.7,62.4,68.5,65.5,61.0,99,83,50,29.68,29.55,9,0,9,0.01
2013-8-3,77.5,68.3,63.1,68.7,65.3,61.7,97,91,71,29.68,29.60,8,0,10,0.07
2013-8-4,78.0,68.0,58.3,63.5,59.6,54.8,98,77,48,29.75,29.62,10,0,10,0.00
2013-8-5,78.2,64.2,52.3,61.6,54.2,46.3,98,74,40,29.82,29.74,7,0,7,0.00
2013-8-6,81.0,67.5,55.4,64.9,59.1,53.7,98,77,43,29.88,29.79,7,0,7,0.00
2013-8-7,78.8,70.8,65.0,70.0,66.6,62.5,96,87,69,29.89,29.81,7,0,7,0.01
2013-8-8,82.8,73.4,69.4,78.1,71.5,68.0,98,94,77,29.82,29.74,10,0,10,1.03
2013-8-9,85.2,76.9,71.9,77.4,74.2,71.3,98,92,74,29.77,29.56,10,0,10,0.09
2013-8-10,82.8,73.4,65.2,73.0,67.5,63.4,98,83,56,29.81,29.63,7,0,7,0.01
2013-8-11,81.1,69.3,58.2,69.6,61.7,56.5,98,79,48,29.88,29.78,5,0,5,0.00
2013-8-12,82.2,71.4,65.9,69.3,66.5,63.8,98,86,56,29.79,29.68,3,0,3,0.66
2013-8-13,78.3,70.2,65.4,71.8,68.0,64.5,98,93,77,29.69,29.45,5,0,5,0.96
2013-8-14,73.0,64.4,54.7,65.9,55.4,51.0,96,75,53,29.82,29.53,13,1,17,0.00
2013-8-15,77.0,62.1,49.4,59.6,53.2,47.2,98,77,41,29.90,29.82,6,0,6,0.00
2013-8-16,79.3,64.1,51.2,66.1,56.8,50.4,98,80,42,29.96,29.88,4,0,4,0.00
2013-8-17,82.3,66.2,52.9,66.3,58.7,51.4,98,79,45,30.03,29.96,4,0,5,0.00
2013-8-18,74.8,67.2,60.7,66.8,62.7,58.9,97,86,66,30.01,29.89,3,0,3,0.00
2013-8-19,76.0,67.7,59.2,67.4,62.8,57.8,98,85,63,29.89,29.80,6,0,6,0.00
2013-8-20,86.5,71.8,59.0,71.5,65.0,57.5,98,82,48,29.89,29.81,5,0,5,0.00
2013-8-21,86.8,72.8,60.6,70.3,64.7,59.7,99,79,44,29.94,29.81,6,0,6,0.00
2013-8-22,78.3,70.8,67.0,74.1,69.4,65.8,98,95,86,29.83,29.64,11,0,11,1.57
2013-8-23,78.7,71.1,64.3,69.2,64.1,53.7,98,81,45,29.86,29.64,6,0,6,0.00
2013-8-24,79.0,66.3,56.1,61.8,56.5,48.6,96,74,39,30.10,29.86,4,0,5,0.00
2013-8-25,81.3,65.7,52.3,62.0,57.3,51.4,98,78,43,30.16,30.00,8,0,8,0.00
2013-8-26,81.8,71.3,62.7,71.4,64.3,57.8,95,79,64,30.00,29.68,9,0,10,0.04
2013-8-27,86.5,75.7,69.2,73.4,69.5,67.7,96,83,57,29.68,29.59,6,0,6,0.03
2013-8-28,80.9,72.4,65.5,74.2,70.6,64.8,98,94,79,29.66,29.60,6,0,6,0.08
2013-8-29,79.7,72.2,68.6,71.5,69.4,66.4,98,91,73,29.79,29.64,3,0,3,0.02
2013-8-30,83.3,73.7,68.6,72.3,69.2,66.5,96,86,64,29.79,29.62,8,0,8,0.00
2013-8-31,85.2,76.8,70.4,76.8,72.6,69.0,96,87,74,29.63,29.54,7,0,8,0.00
2013-9-1,84.5,76.0,71.6,76.5,72.7,69.7,98,90,75,29.61,29.54,8,0,8,0.63
2013-9-2,78.2,73.0,70.1,74.0,71.3,68.8,98,95,85,29.57,29.47,5,0,5,0.14
2013-9-3,81.0,72.0,60.8,70.9,65.3,58.5,98,82,49,29.66,29.47,9,0,9,0.01
2013-9-4,79.9,66.8,56.6,64.1,59.6,55.9,98,80,52,29.77,29.65,8,0,8,0.00
2013-9-5,76.7,64.9,54.1,63.7,56.2,45.9,98,77,37,29.91,29.69,7,0,7,0.00
2013-9-6,70.5,56.9,45.9,53.7,48.0,43.3,98,76,42,30.01,29.90,4,0,5,0.00
2013-9-7,78.5,60.8,44.5,60.8,51.7,43.7,98,77,37,29.89,29.66,8,0,8,0.00
2013-9-8,79.8,68.0,57.0,67.6,58.6,46.1,96,74,39,29.84,29.59,7,0,7,0.00
2013-9-9,72.3,60.6,46.0,61.2,53.6,44.9,98,79,59,29.99,29.84,4,0,4,0.00
2013-9-10,86.3,74.3,66.2,75.8,69.4,61.2,97,85,70,29.92,29.81,10,0,10,0.00
2013-9-11,92.5,80.0,69.9,79.7,74.5,69.3,98,84,63,29.88,29.73,7,0,7,0.00
2013-9-12,84.8,74.9,67.5,77.0,72.0,66.9,98,91,73,29.75,29.44,17,0,17,1.27
2013-9-13,74.8,66.8,56.7,67.1,60.6,50.7,99,82,57,29.63,29.41,9,0,9,0.05
2013-9-14,63.6,55.9,46.2,51.1,48.8,45.0,96,78,61,29.89,29.63,9,0,10,0.00
2013-9-15,71.3,55.2,41.4,58.1,48.6,40.3,98,81,44,29.97,29.83,7,0,7,0.00
2013-9-16,72.8,60.1,51.9,59.6,54.5,49.6,98,83,51,30.00,29.79,5,0,5,0.04
2013-9-17,65.0,53.8,44.0,49.9,43.6,38.7,96,71,43,30.18,30.00,6,0,7,0.00
2013-9-18,70.9,53.1,38.2,53.6,45.4,37.4,98,79,37,30.11,29.94,6,0,6,0.00
2013-9-19,75.1,56.9,40.7,59.2,49.5,39.9,98,80,42,29.95,29.82,8,0,8,0.00
2013-9-20,79.2,61.3,45.5,63.2,55.1,44.6,98,83,50,29.84,29.74,4,0,5,0.00
2013-9-21,77.5,64.4,50.2,67.2,59.9,49.3,98,87,55,29.77,29.40,15,0,15,0.65
2013-9-22,67.5,61.2,53.8,64.1,52.9,43.3,98,76,50,29.68,29.41,11,0,11,0.25
2013-9-23,64.3,54.4,44.9,47.7,44.7,42.3,95,71,51,29.81,29.68,7,0,7,0.00
2013-9-24,73.0,53.6,37.7,53.3,45.5,36.9,98,78,42,29.82,29.64,9,0,9,0.00
2013-9-25,71.3,54.4,40.1,56.4,48.0,39.3,98,82,47,29.72,29.63,4,0,4,0.00
2013-9-26,70.0,56.1,43.6,61.2,52.9,42.8,98,90,67,29.85,29.69,5,0,5,0.00
2013-9-27,66.8,57.6,48.9,57.5,53.1,48.4,98,86,60,30.02,29.85,2,0,3,0.00
2013-9-28,72.8,59.0,48.7,57.8,53.0,48.2,98,83,49,30.08,29.99,3,0,3,0.00
2013-9-29,72.2,56.0,45.1,59.9,52.3,44.5,98,89,59,29.99,29.83,3,0,3,0.00
2013-9-30,73.7,56.6,46.3,58.5,51.5,45.8,99,85,51,29.85,29.73,5,0,5,0.00
2013-10-1,79.8,60.6,45.8,67.3,55.7,45.1,98,86,52,29.77,29.66,5,0,7,0.00
2013-10-2,83.3,64.9,49.4,66.2,58.7,48.8,98,83,51,29.78,29.67,9,0,9,0.00
2013-10-3,77.0,63.5,51.2,66.0,58.3,50.5,98,86,47,29.88,29.78,3,0,3,0.00
2013-10-4,85.0,68.4,56.9,68.7,63.1,56.2,98,85,54,29.83,29.72,9,0,9,0.00
2013-10-5,78.8,68.4,63.8,69.7,65.5,62.8,98,91,71,29.85,29.77,2,0,2,0.00
2013-10-6,68.8,66.9,65.0,67.6,65.8,63.8,98,96,93,29.84,29.77,4,0,5,0.00
2013-10-7,77.6,66.4,56.4,72.1,64.5,51.3,98,94,80,29.77,29.49,15,0,15,0.44
2013-10-8,66.9,54.5,45.2,53.1,48.1,44.1,98,82,48,30.08,29.75,7,0,7,0.02
2013-10-9,60.7,52.2,43.5,51.5,47.6,42.8,98,85,68,30.14,30.03,5,0,5,0.01
2013-10-10,61.1,56.3,51.4,55.9,52.0,47.5,93,86,82,30.03,29.82,5,0,5,0.00
2013-10-11,65.8,62.2,57.1,61.5,58.3,54.5,93,87,83,29.84,29.76,6,0,6,0.03
2013-10-12,72.3,64.3,57.2,59.7,50.9,41.3,86,63,35,30.02,29.81,7,0,7,0.00
2013-10-13,66.0,58.3,49.6,55.3,52.6,48.4,97,82,65,30.13,30.01,5,0,6,0.00
2013-10-14,68.2,53.5,42.6,53.4,48.4,41.7,98,85,51,30.12,29.98,4,0,4,0.00
2013-10-15,72.3,54.4,43.6,57.8,48.2,42.8,98,82,48,30.02,29.88,4,0,4,0.00
2013-10-16,67.0,57.7,47.4,60.9,54.6,46.0,97,90,76,29.88,29.67,3,0,3,0.00
2013-10-17,72.3,65.1,59.7,64.2,61.6,58.6,97,89,72,29.67,29.44,5,0,6,0.01
2013-10-18,66.6,58.6,43.8,63.2,48.6,42.3,95,71,47,29.75,29.43,9,1,14,0.00
2013-10-19,63.4,50.7,38.0,54.2,45.2,36.9,97,83,55,29.75,29.51,4,0,5,0.00
2013-10-20,62.9,52.1,38.7,53.6,41.7,34.1,94,71,35,29.83,29.52,15,1,15,0.01
2013-10-21,67.2,49.8,33.6,46.1,39.3,32.1,98,72,37,29.91,29.74,11,0,11,0.00
2013-10-22,62.5,50.1,40.4,52.1,45.6,38.5,97,85,63,29.74,29.51,9,0,9,0.00
2013-10-23,55.9,44.1,35.2,42.5,37.9,33.7,97,80,57,29.58,29.37,7,0,7,0.00
2013-10-24,53.9,42.1,32.9,37.6,32.5,27.2,96,72,40,29.77,29.52,14,1,14,0.00
2013-10-25,53.5,39.8,30.2,36.2,31.6,28.0,96,75,41,29.99,29.77,13,0,13,0.00
2013-10-26,55.3,41.6,26.3,36.9,30.6,24.3,97,68,40,29.98,29.64,16,1,16,0.00
2013-10-27,58.2,46.8,34.4,37.2,34.1,31.9,91,64,40,29.89,29.61,12,1,12,0.00
2013-10-28,61.4,43.0,28.8,38.3,33.5,27.0,97,74,38,30.06,29.88,11,1,12,0.00
2013-10-29,57.2,43.2,34.1,38.5,35.6,32.3,95,77,46,30.16,30.06,4,0,5,0.00
2013-10-30,59.9,46.2,34.7,51.8,42.2,32.1,95,86,71,30.11,29.93,5,0,6,0.00
2013-10-31,65.4,56.7,46.4,61.1,54.5,44.3,96,92,83,29.98,29.55,7,0,9,0.07
2013-11-1,70.0,63.7,51.2,64.8,58.7,49.2,96,84,61,29.56,29.30,17,2,18,0.25
2013-11-2,67.6,53.9,45.1,52.8,46.1,41.0,97,78,46,29.54,29.38,4,0,9,0.00
2013-11-3,50.9,44.1,33.8,44.6,33.0,21.7,95,67,39,30.21,29.54,10,1,11,0.00
2013-11-4,46.9,36.4,30.5,26.6,21.3,16.4,84,56,32,30.40,30.20,12,0,12,0.00
2013-11-5,56.2,42.1,28.6,42.7,35.5,26.1,94,79,55,30.40,30.23,4,0,5,0.00
2013-11-6,64.1,50.9,37.0,53.4,45.0,35.4,96,81,56,30.25,29.82,9,0,12,0.00
2013-11-7,62.0,52.6,34.8,57.9,48.6,32.0,97,86,64,29.82,29.51,11,1,12,0.01
2013-11-8,49.2,41.3,32.4,37.8,31.0,26.6,94,68,42,29.98,29.70,13,1,14,0.00
2013-11-9,50.9,39.9,27.9,33.0,29.6,26.0,96,69,42,30.05,29.74,9,0,10,0.00
2013-11-10,59.0,46.0,32.6,40.0,33.6,28.6,95,65,43,29.81,29.58,22,2,23,0.00
2013-11-11,53.6,46.7,33.4,35.4,31.1,27.0,78,55,43,29.97,29.71,15,1,15,0.00
2013-11-12,50.0,37.7,29.0,36.8,25.5,18.2,86,61,49,30.05,29.68,15,2,16,0.01
2013-11-13,39.6,30.3,22.0,20.9,17.6,12.8,84,61,34,30.13,30.02,13,1,13,0.00
2013-11-14,52.8,39.5,25.1,24.5,20.5,15.1,83,50,23,30.02,29.92,15,1,15,0.00
2013-11-15,57.1,40.6,28.1,31.9,26.3,23.1,85,60,29,30.00,29.91,7,0,7,0.00
2013-11-16,60.9,47.1,33.4,46.9,41.0,28.5,96,81,54,30.08,29.98,5,0,5,0.03
2013-11-17,61.0,53.3,44.4,59.3,52.0,43.1,98,96,91,30.01,29.53,6,0,7,0.00
2013-11-18,65.2,59.0,49.4,62.3,43.0,28.1,96,59,32,29.55,29.35,19,2,19,0.06
2013-11-19,49.5,43.0,35.3,30.4,26.4,22.8,61,52,44,30.09,29.55,17,3,17,0.00
2013-11-20,45.4,34.5,24.2,23.1,18.3,10.5,75,54,25,30.36,30.09,11,1,11,0.00
2013-11-21,51.9,38.0,20.7,41.7,30.8,17.1,92,76,56,30.36,30.14,7,0,7,0.00
2013-11-22,56.9,50.9,46.1,50.8,47.1,41.5,96,87,79,30.13,29.67,9,0,9,0.06
2013-11-23,53.2,41.5,29.6,49.0,27.0,11.9,93,57,37,29.81,29.67,17,3,17,0.00
2013-11-24,29.6,25.1,22.4,12.7,6.0,3.8,53,44,35,30.14,29.79,21,4,23,0.00
2013-11-25,35.2,27.2,15.8,17.3,13.9,8.4,81,58,45,30.23,30.08,9,1,9,0.00
2013-11-26,43.1,34.7,31.6,42.3,27.2,16.9,97,75,51,30.08,29.49,7,0,7,0.58
2013-11-27,60.5,45.5,34.0,59.9,42.4,21.5,98,89,61,29.53,29.11,18,2,18,1.95
2013-11-28,36.1,31.1,26.5,22.9,17.0,11.7,78,57,38,30.21,29.53,18,2,20,0.00
2013-11-29,38.7,31.0,24.9,25.1,22.2,17.8,88,71,52,30.48,30.21,10,0,11,0.00
2013-11-30,35.7,29.4,21.4,29.2,21.7,14.8,84,73,57,30.50,30.12,5,0,7,0.00
2013-12-1,49.2,37.7,27.4,34.9,30.6,24.8,92,76,54,30.12,29.77,8,0,8,0.00
2013-12-2,49.0,38.5,30.2,35.7,32.8,28.7,94,81,54,29.77,29.63,3,0,3,0.00
2013-12-3,54.1,37.7,28.9,39.8,32.5,27.5,96,83,50,29.76,29.62,8,0,8,0.00
2013-12-4,50.9,41.4,30.8,44.0,37.6,29.5,96,87,71,29.88,29.76,2,0,2,0.00
2013-12-5,56.7,50.3,45.1,56.1,49.2,43.1,98,96,85,29.87,29.68,4,0,4,0.04
2013-12-6,60.2,47.6,37.9,59.6,46.2,36.9,98,95,91,29.91,29.61,15,0,15,0.91
2013-12-7,39.4,35.4,28.9,36.9,29.2,18.9,96,79,59,30.26,29.84,13,1,13,0.07
2013-12-8,32.3,28.7,23.4,28.7,21.9,17.6,96,76,61,30.33,30.10,8,0,9,0.00
2013-12-9,36.2,33.6,29.7,35.6,32.7,28.7,98,97,96,30.11,29.72,8,1,8,0.14
2013-12-10,33.7,30.6,22.2,33.0,29.3,20.0,98,95,90,29.88,29.64,6,0,7,0.01
2013-12-11,32.8,25.9,18.2,21.7,19.3,15.9,94,77,53,30.08,29.88,12,1,14,0.00
2013-12-12,27.7,23.7,20.2,19.1,11.3,6.6,83,59,44,30.11,29.91,13,1,14,0.00
2013-12-13,34.6,25.4,13.3,22.6,16.1,9.1,88,69,50,30.08,29.88,11,1,14,0.01
2013-12-14,28.0,24.6,20.4,26.5,21.3,18.7,95,87,74,30.22,29.52,11,2,11,0.00
2013-12-15,38.2,33.4,28.0,35.0,29.4,22.4,96,86,68,29.59,29.28,14,2,14,0.00
2013-12-16,31.7,24.9,13.5,23.9,14.4,10.3,89,65,45,29.97,29.58,16,2,16,0.00
2013-12-17,27.9,22.3,16.2,26.7,19.9,13.3,95,90,79,29.97,29.68,4,0,4,0.00
2013-12-18,37.4,25.2,14.3,25.9,20.1,12.0,95,82,57,29.93,29.67,14,1,15,0.00
2013-12-19,43.3,28.5,15.4,30.6,23.4,13.6,93,83,56,29.94,29.78,9,0,9,0.07
2013-12-20,50.2,37.1,27.5,35.0,31.4,26.3,96,81,54,29.86,29.72,6,0,8,0.03
2013-12-21,59.9,42.9,33.0,50.8,39.7,31.7,97,89,71,29.76,29.65,10,0,10,0.00
2013-12-22,68.9,64.2,47.7,63.9,59.8,46.5,98,86,76,29.72,29.55,18,2,20,0.02
2013-12-23,60.0,52.9,40.0,58.5,50.7,30.7,98,93,69,29.92,29.66,11,1,13,0.57
2013-12-24,39.9,34.4,25.3,31.0,23.6,11.9,91,65,52,30.11,29.85,16,2,16,0.00
2013-12-25,27.4,24.1,18.2,17.4,11.3,8.4,67,58,49,30.28,30.11,12,1,12,0.00
2013-12-26,35.3,28.3,23.4,28.9,23.5,17.3,91,82,68,30.17,29.92,11,0,12,0.00
2013-12-27,40.7,29.1,20.3,24.4,22.4,18.4,93,78,49,30.11,30.01,11,1,13,0.00
2013-12-28,54.9,35.8,21.7,30.7,26.2,19.8,95,72,38,30.04,29.82,16,1,16,0.00
2013-12-29,42.0,38.0,32.5,40.7,35.5,28.7,97,91,82,29.82,29.19,13,0,13,0.98
2013-12-30,44.4,33.8,22.6,39.3,27.1,12.6,97,77,58,29.94,29.46,12,1,12,0.01
2013-12-31,31.0,25.2,18.1,26.6,15.9,11.3,88,68,52,30.04,29.81,18,1,18,0.00
2014-1-1,33.1,27.1,19.0,22.4,18.4,11.4,87,70,59,30.15,29.98,5,0,9,0.00
2014-1-2,31.0,25.1,15.1,23.6,20.7,13.2,93,84,69,29.98,29.42,17,2,17,0.00